Powrót do katalogu

FENGYUN 1C DEB

AktywnySSO
NORAD 30471·DEBRIS·🇨🇳 China

Wystrzelony May 10, 1999 z Taiyuan Satellite Launch Center

Loading…

Następne Przeloty (najbliższe 24 godziny)

TLE

ŚwieżeSource: Space-Track

Epoka: Sep 14, 2026, 05:35 UTC

1 30471U 99025AGJ 26257.23331162  .00001760  00000-0  90288-3 0  9997
2 30471  99.0505 353.4858 0081500 195.8308 193.2398 14.15046958  3279

Śledź FENGYUN 1C DEB w czasie rzeczywistym z AllMySat

Download on the App Store